Regional Weather Roundup
Issued by NWS

Home | Current Version | Previous Version | Graphics & Text | Print | Product List | Glossary On
Versions: 1 2 3 4 5 6 7 8 9 10 11 12 13 14 15 16 17 18 19 20 21 22 23 24 25 26 27 28 29 30 31 32 33 34 35 36 37 38 39 40 41 42 43 44 45 46 47 48 49 50
000
ASUS45 KCYS 230110
RWRWY

WYOMING REGIONAL WEATHER ROUNDUP
NATIONAL WEATHER SERVICE CHEYENNE WY
700 PM MDT FRI AUG 22 2014

NOTE:  "FAIR" INDICATES FEW OR NO CLOUDS BELOW 12,000 FEET
WITH NO SIGNIFICANT WEATHER AND/OR OBSTRUCTIONS TO VISIBILITY.

WYZ001-230200-
YELLOWSTONE NATIONAL PARK

CITY           SKY/WX    TMP DP  RH WIND       PRES   REMARKS
LK YELLOWSTONE   N/A     49  40  71 CALM      30.18S
W YELLOWSTONE  NOT AVBL

$$
WYZ002>013-054>058-071-098>099-230200-
NORTHERN WYOMING

CITY           SKY/WX    TMP DP  RH WIND       PRES   REMARKS
JACKSON        CLOUDY    48  46  93 CALM      30.13F
CODY           CLOUDY    61  52  72 N14G20    30.03R
GREYBULL       PTSUNNY   69  52  54 NW12      29.95S
WORLAND        MOSUNNY   71  50  47 NW7       29.94F
SHERIDAN       CLOUDY    66  56  70 NE13      30.01R
BUFFALO        CLOUDY    65  55  70 N9        30.04R
GILLETTE       TSTM      60  57  89 N7        30.02R
HULETT         FAIR      66  59  77 MISG      30.00
NEWCASTLE      FAIR      73  54  49 SE15      29.99

$$
WYZ014>020-022>026-101>103-230200-
CENTRAL WYOMING

CITY           SKY/WX    TMP DP  RH WIND       PRES   REMARKS
BIG PINEY      LGT RAIN  50  44  80 NW12      30.17R
PINEDALE       CLOUDY    50  45  81 W13G18    30.14R
DUBOIS         FAIR      52  41  66 NW7       30.11F
LANDER         CLOUDY    59  51  75 SE8       30.03F
RIVERTON       RAIN      56  51  84 SW18      30.06R
CASPER         CLOUDY    71  49  45 E9        30.00R
DOUGLAS        TSTM      63  56  78 N9        30.03R

$$
WYZ021-027>030-104>119-230200-
SOUTHERN WYOMING

CITY           SKY/WX    TMP DP  RH WIND       PRES   REMARKS
EVANSTON       LGT RAIN  49  47  93 N18       30.18R FOG
KEMMERER       RAIN      46  45  93 NW15      30.17S
FORT BRIDGER     N/A     51  51  98 N12       30.17R
ROCK SPRINGS   CLOUDY    60  49  66 N10       30.06F
DIXON          FAIR      61  54  77 E10       30.09F
RAWLINS        CLOUDY    69  40  34 S21       30.06F
SARATOGA       CLOUDY    63  46  55 MISG      30.10S
LARAMIE        CLOUDY    61  52  72 SE22G29   30.11F
CHEYENNE       LGT RAIN  60  57  89 S15G25    30.08F
TORRINGTON     RAIN      63  59  87 E13       29.99F FOG
PINE BLUFFS    MOCLDY    63  55  77 SE18G25   30.07F

$$


USA.gov is the U.S. government's official web portal to all federal, state and local government web resources and services.